Regional Weather Roundup
Issued by NWS

Home | Current Version | Previous Version | Graphics & Text | Print | Product List | Glossary On
Versions: 1 2 3 4 5 6 7 8 9 10 11 12 13 14 15 16 17 18 19 20 21 22 23 24 25 26 27 28 29 30 31 32 33 34 35 36 37 38 39 40 41 42 43 44 45 46 47 48 49 50
991
ASUS43 KFSD 081302
RWRSD

WEATHER ROUNDUP FOR SOUTH DAKOTA
NATIONAL WEATHER SERVICE SIOUX FALLS SD
700 AM CST MON FEB 08 2016

NOTE: "FAIR" INDICATES FEW OR NO CLOUDS BELOW 12,000 FEET WITH NO
SIGNIFICANT WEATHER AND/OR OBSTRUCTIONS TO VISIBILITY.


SDZ001>005-009-010-012>017-081400-
NORTHWEST AND NORTH CENTRAL SOUTH DAKOTA

CITY           SKY/WX    TMP DP  RH WIND       PRES   REMARKS
BUFFALO          N/A     22  13  68 W9        30.28R WCI  12
FAITH            N/A     22  13  68 NW17      30.29S WCI   8
MOBRIDGE       CLEAR     26  16  65 NW16G26   30.21R WCI  14
$$

SDZ012>016-024>037-041>051-057-063-072>074-081400-
SOUTHWEST AND SOUTH CENTRAL SOUTH DAKOTA

CITY           SKY/WX    TMP DP  RH WIND       PRES   REMARKS
RAPID CTY ARPT CLOUDY    28   8  43 NW25G33   30.30S WCI  13
PIERRE         CLEAR     26  17  68 NW24G32   30.23S WCI  11
CUSTER         CLOUDY    24  -6  26 NW17G30   30.22S WCI  11
ELLSWORTH AFB  CLOUDY    28   9  43 NW23      30.31R WCI  14
PHILIP         CLEAR     25  16  68 NW15      30.32F WCI  13
PINE RIDGE     CLOUDY    16  10  77 W6        30.34S WCI   7
WINNER         FAIR      26  16  65 NW22G32   30.23R WCI  12
$$

SDZ004>011-016>023-039-040-081400-
NORTHEAST SOUTH DAKOTA

CITY           SKY/WX    TMP DP  RH WIND       PRES   REMARKS
ABERDEEN       FLURRIES  23  15  71 N22G36    30.15R WCI   8
WATERTOWN      LGT SNOW  17  11  77 N36G44    30.03F WCI  -4
BROOKINGS      LGT SNOW  17  12  80 N26G35    30.01S WCI  -2
SISSETON         N/A     16  11  80 N24G39    30.08S WCI  -2
$$

SDZ017-020-022-023-036>040-048>070-081400-
SOUTHEAST SOUTH DAKOTA

CITY           SKY/WX    TMP DP  RH WIND       PRES   REMARKS
SIOUX FALLS    LGT SNOW  20  14  77 N31G43    30.04R VSB 1   WCI   1
HURON          MOCLDY    24  16  71 N20G31    30.13R WCI  10
MITCHELL       CLOUDY    26  18  71 NW24      30.14R WCI  11
YANKTON        CLOUDY   N/A N/A N/A NW36G45   30.09S
$$

ABBREVIATIONS USED IN REMARKS
   TC - TEMPERATURE IN CELSIUS
  WCI - WIND CHILL INDEX
   HX - HEAT INDEX
  VSB - VISIBILITY





USA.gov is the U.S. government's official web portal to all federal, state and local government web resources and services.